Meteo Giornale » Osservazioni meteo Romania » Bucarest Otopeni
ore: 21:00 - Osservazioni Meteo Bucarest Otopeni
Lat. 44° 33' N Lon. 26° 6' E Alt. 95 metri s.l.m.
25 °C
Sereno
Temp. 24 Ore
16 °C
33 °C
Nord
3.7 Km/h
Dew point 13 °C
Umidità 47 %
Visibilità 10 Km
Il sole sorge alle ore 06:38
Il sole tramonta alle ore 19:53
| Data e Ora | Cielo e Fenomeni | T °C | DP °C | Um. % | Pres. hPa | Vis. km | Vento km/h | |
|---|---|---|---|---|---|---|---|---|
| Oggi h: 21:00 | Sereno | 25 | 13 | 47 | 1016 | 10 | N 3.7 | |
| Oggi h: 20:30 | Sereno | 26 | 13 | 44 | 1016 | 10 | E/SE 7.4 | |
| Oggi h: 20:00 | Sereno | 28 | 12 | 37 | 1015 | 10 | E/NE 9.3 | |
| Oggi h: 19:30 | Sereno | 30 | 12 | 33 | 1015 | 10 | E 11.1 | |
| Oggi h: 19:00 | Sereno | 31 | 12 | 31 | 1015 | 10 | E 9.3 | |
| Oggi h: 18:30 | Sereno | 31 | 13 | 33 | 1015 | 10 | N 1.8 | |
| Oggi h: 18:00 | Sereno | 30 | 11 | 30 | 1015 | 10 | N 5.5 | |
| Oggi h: 17:30 | Sereno | 32 | 11 | 27 | 1015 | 10 | O/NO 13 | |
| Oggi h: 17:00 | Sereno | 32 | 12 | 29 | 1015 | 10 | NO 11.1 | |
| Oggi h: 16:30 | Sereno | 33 | 10 | 24 | 1015 | 10 | N 5.5 | |
| Oggi h: 16:00 | Sereno | 32 | 9 | 24 | 1015 | 10 | O 9.3 | |
| Oggi h: 15:30 | Sereno | 32 | 9 | 24 | 1016 | 10 | N 7.4 | |
| Oggi h: 15:00 | Sereno | 32 | 9 | 24 | 1016 | 10 | NO 11.1 | |
| Oggi h: 14:30 | Sereno | 31 | 8 | 23 | 1016 | 10 | O/NO 9.3 | |
| Oggi h: 14:00 | Sereno | 31 | 8 | 23 | 1016 | 10 | N 5.5 | |
| Oggi h: 13:30 | Sereno | 30 | 8 | 25 | 1016 | 10 | N 5.5 | |
| Oggi h: 13:00 | Sereno | 30 | 8 | 25 | 1016 | 10 | N 1.8 | |
| Oggi h: 12:30 | Sereno | 29 | 8 | 26 | 1016 | 10 | N 3.7 | |
| Oggi h: 12:00 | Sereno | 28 | 8 | 28 | 1017 | 10 | E 7.4 | |
| Oggi h: 11:30 | Sereno | 27 | 9 | 32 | 1017 | 10 | NE 7.4 | |
| Oggi h: 11:00 | Sereno | 27 | 12 | 39 | 1017 | 10 | NE 9.3 | |
| Oggi h: 10:30 | Sereno | 25 | 13 | 47 | 1017 | 10 | E/NE 9.3 | |
| Oggi h: 10:00 | Sereno | 24 | 13 | 50 | 1017 | 10 | NE 7.4 | |
| Oggi h: 09:30 | Sereno | 22 | 13 | 56 | 1017 | 10 | N/NE 9.3 | |
| Oggi h: 09:00 | Sereno | 21 | 12 | 56 | 1017 | 10 | N 9.3 | |
| Oggi h: 08:30 | Sereno | 20 | 13 | 64 | 1017 | 10 | N/NE 7.4 | |
| Oggi h: 08:00 | Sereno | 18 | 13 | 72 | 1016 | 10 | N/NE 9.3 | |
| Oggi h: 07:30 | Sereno | 18 | 13 | 72 | 1016 | 10 | N/NE 11.1 | |
| Oggi h: 07:00 | Sereno | 17 | 13 | 77 | 1016 | 10 | N/NE 9.3 | |
| Oggi h: 06:30 | Sereno | 16 | 13 | 82 | 1016 | 10 | N 5.5 | |
| Oggi h: 06:00 | Sereno | 17 | 12 | 72 | 1016 | 10 | N 5.5 | |
| Oggi h: 05:30 | Sereno | 17 | 12 | 72 | 1016 | 10 | N 5.5 | |
| Oggi h: 05:00 | Sereno | 18 | 12 | 67 | 1016 | 10 | N 5.5 | |
| Oggi h: 04:30 | Sereno | 18 | 12 | 67 | 1016 | 10 | NE 7.4 | |
| Oggi h: 04:00 | Sereno | 18 | 12 | 67 | 1016 | 10 | N 5.5 | |
| Oggi h: 03:30 | Sereno | 18 | 12 | 67 | 1017 | 10 | N 5.5 | |
| Oggi h: 03:00 | Sereno | 19 | 11 | 59 | 1017 | 10 | N 11.1 | |
| Oggi h: 02:30 | Sereno | 20 | 11 | 56 | 1017 | 10 | N 13 | |
| Oggi h: 02:00 | Sereno | 20 | 10 | 52 | 1017 | 10 | N/NE 7.4 | |
| Oggi h: 01:30 | Sereno | 20 | 9 | 49 | 1017 | 10 | N 5.5 | |
| Oggi h: 01:00 | Sereno | 20 | 10 | 52 | 1017 | 10 | N 5.5 | |
| Oggi h: 00:30 | Sereno | 20 | 11 | 56 | 1017 | 10 | N 3.7 | |
| Oggi h: 00:00 | Sereno | 20 | 11 | 56 | 1017 | 10 | E/SE 7.4 | |
| Ieri h: 23:30 | Sereno | 21 | 10 | 49 | 1017 | 10 | E/SE 7.4 | |
| Ieri h: 23:00 | Sereno | 22 | 9 | 43 | 1017 | 10 | SE 9.3 | |
| Ieri h: 22:30 | Sereno | 22 | 10 | 46 | 1016 | 10 | SE 7.4 | |
| Ieri h: 22:00 | Sereno | 23 | 9 | 40 | 1016 | 10 | SE 9.3 | |



